sat.trackr.live / text

‹ back to catalog

STARLINK-11397 [DTC]

NORAD 62590 · 2025-008D

PAYLOAD ACTIVE UNKNOWN

§ Identity

Operator
Country
US
Launch date
2025-01-13
Launch site
AFETR
Launch vehicle
Mass (kg)
RCS (m²)

Purposes: comms

External: N2YO · Heavens-Above · Gunter

§ Orbital elements

Epoch: 2026-05-25T00:23:34.319616Z

Period
91.67 min
Inclination
43.0036°
Eccentricity
0.0002387
Mean motion
15.70894325 rev/d
Perigee alt
354.7 km
Apogee alt
357.9 km
Semi-major
6,734.5 km
B*
1.4758e-3
RAAN
25.6255°
Arg perigee
258.5596°
Mean anomaly
101.5004°
Rev number
7,923

§ Raw data

STARLINK-11397 [DTC]1 62590U 25008D   26145.01636944  .00193847  00000+0  14758-2 0  99962 62590  43.0036  25.6255 0002387 258.5596 101.5004 15.70894325 79231

JSON: /api/v1/satellites/62590 · /tle

For live sub-satellite position, see the globe view (requires WebGL).

§ Visibility from observer

Set your observer location to see the next 7 days of passes ≥ 10°. The values pass through the URL so the page stays shareable.

No JS? Fill the form by hand. The geolocation button needs JavaScript.